AirNav   GEt a FREE Bose Revolve Bluetooth Speaker
 
 831 users online  

9K7 Ellsworth Municipal Airport
Ellsworth, Kansas, USA

GOING TO ELLSWORTH?


FAA INFORMATION EFFECTIVE 06 DECEMBER 2018

Location

FAA Identifier: 9K7
Lat/Long: 38-45-01.9000N / 098-13-49.3000W
38-45.031667N / 098-13.821667W
38.7505278 / -98.2303611
(estimated)
Elevation: 1630.5 ft. / 497.0 m (surveyed)
Variation: 07E (1985)
From city: 1 mile N of ELLSWORTH, KS
Time zone: UTC -6 (UTC -5 during Daylight Saving Time)
Zip code: 67439

Airport Operations

Airport use: Open to the public
Activation date: 12/1946
Control tower: no
ARTCC: KANSAS CITY CENTER
FSS: WICHITA FLIGHT SERVICE STATION
NOTAMs facility: ICT (NOTAM-D service available)
Attendance: UNATNDD
Wind indicator: yes
Segmented circle: no
Lights: ACTVT MIRL RY 17/35 & TRIL RY 35 - CTAF.
Beacon: white-green (lighted land airport)
Operates sunset to sunrise.

Airport Communications

CTAF/UNICOM: 122.7
WX AWOS-3: 119.675 (785-472-5609)

Nearby radio navigation aids

VOR radial/distance  VOR name  Freq  Var
SLNr243/30.3SALINA VORTAC117.1007E

Airport Services

Fuel available: 100LL
FOR FUEL AFT HRS CALL 785-472-4416. FUEL ALSO AVBL 24 HRS BY CREDIT CARD.
Parking: tiedowns
Airframe service: NONE
Powerplant service: NONE
Bottled oxygen: NONE
Bulk oxygen: NONE

Runway Information

Runway 17/35

Dimensions: 4327 x 50 ft. / 1319 x 15 m
Surface: asphalt, in good condition
Runway edge lights: medium intensity
RUNWAY 17  RUNWAY 35
Latitude: 38-45.462717N38-44.750052N
Longitude: 098-13.813210W098-13.825945W
Elevation: 1630.5 ft.1608.0 ft.
Traffic pattern: leftleft
Displaced threshold: no410 ft.
Markings: numbers only, in good conditionnumbers only, in good condition
Visual slope indicator: tri-color VASI on left
TRIL OPER NIGHT ONLY.
Touchdown point: yes, no lightsyes, no lights
Obstructions: none40 ft. pole, lighted, 938 ft. from runway, 18:1 slope to clear
33:1 TO DSPLCD THR.

Runway 12/30

Dimensions: 2144 x 250 ft. / 653 x 76 m
Surface: turf, in good condition
Weight bearing capacity: 
PCN 5 /F/C/Y/U
RUNWAY 12  RUNWAY 30
Latitude: 38-44.999438N38-44.766558N
Longitude: 098-13.997148W098-13.658005W
Elevation: 1607.3 ft.1600.5 ft.
Traffic pattern: leftleft
Touchdown point: yes, no lightsyes, no lights

Airport Ownership and Management from official FAA records

Ownership: Publicly-owned
Owner: CITY OF ELLSWORTH
CITY HALL 1ST & K
ELLSWORTH, KS 67439
Phone 785-472-5566
Manager: SCOTT MOORE- CITY ADMIN
CITY HALL
ELLSWORTH, KS 67439
Phone 785-472-5566

Airport Operational Statistics

Aircraft based on the field: 12
Single engine airplanes: 10
Ultralights: 2
    
Aircraft operations: avg 55/day *
70% local general aviation
30% transient general aviation
<1% military
* for 12-month period ending 12 September 2018

Additional Remarks

IN APCH AREA TO RY 35 ARE FENCES; CLUSTER LIGHTS & TOWERS.
ARPT PUBLIC PHONE NUMBER 785-472-5608.

Instrument Procedures

There are no published instrument procedures at 9K7.

Some nearby airports with instrument procedures:

KLYO - Lyons-Rice County Municipal Airport (25 nm S)
KSLN - Salina Regional Airport (27 nm E)
KRSL - Russell Municipal Airport (28 nm W)
KMPR - Mc Pherson Airport (35 nm SE)
KGBD - Great Bend Municipal Airport (38 nm SW)
 
Loc | Ops | Rwys | IFR | FBO | Links
Com | Nav | Svcs | Stats | Notes

Kansas City Aviation Department
 
Area around 9K7 (Ellsworth Municipal Airport)
 
Road maps at: MapQuest Bing Google
 
Aerial photo
WARNING: Photo may not be current or correct
Aerial photo of 9K7 (Ellsworth Municipal Airport)
Photo taken 27-May-2010
looking north.

Do you have a better or more recent aerial photo of Ellsworth Municipal Airport that you would like to share? If so, please send us your photo.

 
Sectional chart

 
Airport distance calculator
Flying to Ellsworth Municipal Airport? Find the distance to fly.

From to 9K7

Sunrise and sunset
Times for 09-Dec-2018
 Local
(UTC-6)
 Zulu
(UTC)
Morning civil twilight07:1113:11
Sunrise07:4013:40
Sunset17:1023:10
Evening civil twilight17:4023:40

Current date and time
Zulu (UTC)  09-Dec-2018 23:36:27
Local (UTC-6)  09-Dec-2018 17:36:27
 
METAR
KLYO 
25nm S 
092315Z AUTO 32003KT 10SM CLR 04/M06 A3031 RMK AO2 T00431059
KSLN 
27nm E 
092253Z 01003KT 10SM CLR 05/M06 A3032 RMK AO2 SLP280 T00501056
KRSL 
28nm W 
092253Z AUTO 30009KT 10SM CLR 04/M06 A3029 RMK AO2 SLP276 T00441056
KGBD 
38nm SW 
092256Z AUTO 16003KT 10SM CLR 06/M07 A3030 RMK AO2 SLP280 T00561072
KHUT 
44nm SE 
092252Z 29005KT 10SM CLR 04/M06 A3030 RMK AO2 SLP270 T00441056
KHYS 
49nm W 
092256Z AUTO 34009KT 10SM CLR 05/M05 A3031 RMK AO2 SLP284 T00501050
TAF
KSLN 
27nm E 
091720Z 0918/1018 33004KT P6SM FEW200
KRSL 
28nm W 
091720Z 0918/1018 33006KT P6SM SKC FM100300 VRB04KT P6SM FEW200
NOTAMs
Click for the latest NOTAMs
NOTAMs are issued by the DoD/FAA and will open in a separate window not controlled by AirNav.

 

 
 

FBO, Fuel Providers, and Aircraft Ground Support

  
 Business Name 
 
 Contact 
 
 Services / Description 
 
Fuel Prices
 
Comments
  
Ellsworth Municipal Airport 785-472-5566
785-472-5567
[web site]
[email]
Airport management, Aviation fuel, Flying club, Courtesy transportation, Pilots lounge / snooze room, Restrooms

More info about Ellsworth Municipal Airport
independent
100LL
SS $4.45 
 Updated 03-Dec-2018
 
   write
SS=Self service
Update Fuel Prices
 

Would you like to see your business listed on this page?

 If your business provides an interesting product or service to pilots, flight crews, aircraft, or users of the Ellsworth Municipal Airport, you should consider listing it here.  To start the listing process, click on the button below
 
Add a business
 

Other Pages about Ellsworth Municipal Airport

www.ellsworthks.net/index.aspx?nid=125
AWOS/ASOS display
 
Update a link
 
Copyright © AirNav, LLC. All rights reserved. Privacy Policy  Contact